DLH1156 EDDF-LEPA

Flight info

Callsign DLH1156
Flight time 2h 0m
Altitude 29000
Route ANEKI2L/18 ANEKI Y163 HERBI/N0436F370 Y164 MOPAN DCT LUTIX DCT BENOT DCT NEMOS DCT GEVEA DCT INCUS DCT BALSI DCT RETNO DCT TUPOX DCT MTG DCT DIVKO DCT VATIR DCT PIVUS N852 VERSO L129 LUNIK
Aircraft A320/M-SDE2E3FGIJ1LORWXYZ/HB1

Departure

Time 2026-05-05 10:32
Airport Frankfurt Main Airport (EDDF)

Arrival

Time 2026-05-05 12:32
Airport Palma de Mallorca Airport (LEPA)
Time Latitude Longitude Altitude Speed Heading
2026-05-05 09:49 50.04910 8.58866 365 ft 0 kts 160°
2026-05-05 10:20 50.04920 8.58860 366 ft 4 kts 160°
2026-05-05 10:20 50.04942 8.58848 362 ft 2 kts 159°
2026-05-05 10:21 50.04963 8.58842 363 ft 4 kts 214°
2026-05-05 10:21 50.04976 8.58871 360 ft 4 kts 250°
2026-05-05 10:21 50.04981 8.58891 360 ft 1 kts 250°
2026-05-05 10:22 50.04981 8.58890 360 ft 0 kts 250°
2026-05-05 10:26 50.04979 8.58884 360 ft 3 kts 249°
2026-05-05 10:26 50.04967 8.58833 362 ft 8 kts 249°
2026-05-05 10:26 50.04943 8.58736 362 ft 10 kts 246°
2026-05-05 10:27 50.04895 8.58688 361 ft 7 kts 180°
2026-05-05 10:27 50.04856 8.58702 366 ft 6 kts 162°
2026-05-05 10:27 50.04804 8.58732 365 ft 10 kts 160°
2026-05-05 10:27 50.04744 8.58765 368 ft 7 kts 164°
2026-05-05 10:28 50.04707 8.58769 369 ft 4 kts 184°
2026-05-05 10:28 50.04664 8.58761 370 ft 6 kts 187°
2026-05-05 10:28 50.04634 8.58755 370 ft 0 kts 187°
2026-05-05 10:29 50.04631 8.58755 370 ft 3 kts 187°
2026-05-05 10:29 50.04612 8.58747 371 ft 2 kts 201°
2026-05-05 10:29 50.04589 8.58724 371 ft 8 kts 216°
2026-05-05 10:30 50.04526 8.58642 371 ft 16 kts 219°
2026-05-05 10:30 50.04465 8.58497 370 ft 17 kts 248°
2026-05-05 10:30 50.04425 8.58329 370 ft 10 kts 249°
2026-05-05 10:30 50.04421 8.58314 371 ft 0 kts 249°
2026-05-05 10:31 50.04389 8.58180 370 ft 46 kts 250°
2026-05-05 10:31 50.04187 8.57333 367 ft 116 kts 250°
2026-05-05 10:32 50.03843 8.55881 375 ft 166 kts 251°
2026-05-05 10:32 50.03447 8.54209 1006 ft 167 kts 249°
2026-05-05 10:32 50.03039 8.52518 1750 ft 169 kts 249°
2026-05-05 10:32 50.02455 8.50836 2159 ft 189 kts 223°
2026-05-05 10:33 50.01262 8.49758 2486 ft 211 kts 198°
2026-05-05 10:33 49.99817 8.49088 3088 ft 220 kts 189°
2026-05-05 10:33 49.98320 8.49394 3945 ft 222 kts 153°
2026-05-05 10:33 49.97210 8.51045 4819 ft 226 kts 122°
2026-05-05 10:34 49.96328 8.53055 5664 ft 228 kts 139°
2026-05-05 10:34 49.94865 8.54162 6091 ft 248 kts 172°
2026-05-05 10:34 49.93074 8.54276 6689 ft 264 kts 183°
2026-05-05 10:34 49.91219 8.54078 7532 ft 270 kts 185°
2026-05-05 10:35 49.89335 8.53873 8430 ft 274 kts 183°
2026-05-05 10:35 49.87414 8.53751 9326 ft 279 kts 181°
2026-05-05 10:35 49.85453 8.53731 10129 ft 287 kts 180°
2026-05-05 10:35 49.83378 8.53787 10453 ft 310 kts 179°
2026-05-05 10:36 49.81180 8.53907 11054 ft 321 kts 178°
2026-05-05 10:36 49.78933 8.54060 11854 ft 325 kts 178°
2026-05-05 10:36 49.76667 8.53936 12661 ft 328 kts 185°
2026-05-05 10:36 49.74413 8.53647 13475 ft 331 kts 186°
2026-05-05 10:37 49.72103 8.53346 14204 ft 334 kts 186°
2026-05-05 10:37 49.69778 8.53040 14913 ft 336 kts 186°
2026-05-05 10:37 49.67439 8.52727 15633 ft 339 kts 186°
2026-05-05 10:37 49.65078 8.52411 16361 ft 341 kts 186°
2026-05-05 10:38 49.62700 8.52096 17096 ft 344 kts 186°
2026-05-05 10:38 49.60301 8.51778 17801 ft 347 kts 186°
2026-05-05 10:38 49.57880 8.51458 18446 ft 350 kts 186°
2026-05-05 10:38 49.55439 8.51140 19011 ft 354 kts 186°
2026-05-05 10:39 49.52970 8.50822 19563 ft 358 kts 185°
2026-05-05 10:39 49.50474 8.50499 20113 ft 362 kts 185°
2026-05-05 10:39 49.47947 8.50167 20660 ft 366 kts 185°
2026-05-05 10:39 49.45394 8.49832 21197 ft 370 kts 185°
2026-05-05 10:40 49.42812 8.49495 21729 ft 374 kts 185°
2026-05-05 10:40 49.40207 8.49158 22244 ft 378 kts 185°
2026-05-05 10:40 49.37578 8.48819 22758 ft 381 kts 185°
2026-05-05 10:40 49.34920 8.48472 23302 ft 385 kts 185°
2026-05-05 10:41 49.32238 8.48117 23776 ft 388 kts 185°
2026-05-05 10:41 49.29568 8.47776 24240 ft 390 kts 185°
2026-05-05 10:41 49.26860 8.47450 24726 ft 391 kts 185°
2026-05-05 10:41 49.24136 8.47131 25205 ft 392 kts 185°
2026-05-05 10:42 49.19574 8.46614 26041 ft 392 kts 185°
2026-05-05 10:42 49.16855 8.46317 26566 ft 392 kts 185°
2026-05-05 10:42 49.14131 8.46025 27036 ft 393 kts 185°
2026-05-05 10:43 49.11438 8.45741 27479 ft 394 kts 185°
2026-05-05 10:43 49.08663 8.45454 27925 ft 395 kts 185°
2026-05-05 10:43 49.05944 8.45176 28351 ft 397 kts 185°
2026-05-05 10:43 49.03185 8.44898 28757 ft 399 kts 185°
2026-05-05 10:44 49.00413 8.44622 28857 ft 398 kts 185°
2026-05-05 10:44 48.94910 8.44064 28866 ft 395 kts 185°
2026-05-05 10:45 48.89425 8.43499 28874 ft 394 kts 185°
2026-05-05 10:45 48.83947 8.42938 28874 ft 394 kts 185°
2026-05-05 10:46 48.78505 8.42384 28875 ft 394 kts 185°
2026-05-05 10:46 48.73037 8.41788 28884 ft 393 kts 185°
2026-05-05 10:47 48.67586 8.41166 28881 ft 392 kts 185°
2026-05-05 10:47 48.62146 8.40544 28875 ft 392 kts 185°
2026-05-05 10:48 48.56716 8.39923 28867 ft 391 kts 185°
2026-05-05 10:48 48.51287 8.39304 28860 ft 391 kts 185°
2026-05-05 10:49 48.45858 8.38687 28856 ft 391 kts 185°
2026-05-05 10:49 48.40618 8.37312 28863 ft 370 kts 203°
2026-05-05 10:49 48.38461 8.35298 28865 ft 365 kts 218°
2026-05-05 10:50 48.36610 8.32688 28869 ft 364 kts 221°
2026-05-05 10:50 48.32959 8.27423 28874 ft 364 kts 220°
2026-05-05 10:51 48.29330 8.22207 28882 ft 364 kts 220°
2026-05-05 10:51 48.25663 8.16969 28886 ft 362 kts 217°
2026-05-05 10:52 48.21421 8.13047 28885 ft 358 kts 204°
2026-05-05 10:52 48.16956 8.09763 28881 ft 357 kts 204°
2026-05-05 10:53 48.12487 8.06477 28872 ft 358 kts 204°
2026-05-05 10:53 48.08042 8.03200 28868 ft 358 kts 204°
2026-05-05 10:54 48.03560 7.99898 28868 ft 359 kts 204°
2026-05-05 10:54 47.99073 7.96593 28867 ft 359 kts 204°
2026-05-05 10:55 47.94535 7.93269 28890 ft 370 kts 203°
2026-05-05 10:55 47.89865 7.89860 28892 ft 375 kts 203°
2026-05-05 10:56 47.85201 7.86453 28893 ft 376 kts 203°
2026-05-05 10:56 47.80498 7.83024 28892 ft 376 kts 203°
2026-05-05 10:57 47.75795 7.79601 28892 ft 376 kts 203°
2026-05-05 10:57 47.71086 7.76184 28888 ft 376 kts 203°
2026-05-05 10:58 47.66380 7.72772 28888 ft 376 kts 203°
2026-05-05 10:58 47.61678 7.69370 28888 ft 376 kts 203°
2026-05-05 10:59 47.57000 7.65999 28888 ft 376 kts 203°
2026-05-05 10:59 47.52294 7.62614 28889 ft 375 kts 203°
2026-05-05 11:00 47.47603 7.59237 28886 ft 375 kts 203°
2026-05-05 11:00 47.42855 7.55843 28896 ft 388 kts 202°
2026-05-05 11:00 47.40381 7.54078 28894 ft 400 kts 203°
2026-05-05 11:01 47.37841 7.52265 28896 ft 411 kts 203°
2026-05-05 11:01 47.35266 7.50423 28893 ft 422 kts 203°
2026-05-05 11:01 47.32595 7.48513 28890 ft 430 kts 203°
2026-05-05 11:02 47.27166 7.44639 28886 ft 435 kts 203°
2026-05-05 11:02 47.21701 7.40757 28892 ft 436 kts 202°
2026-05-05 11:03 47.16432 7.36328 28889 ft 442 kts 217°
2026-05-05 11:03 47.12361 7.29445 28890 ft 448 kts 227°
2026-05-05 11:04 47.08476 7.22269 28891 ft 449 kts 227°
2026-05-05 11:04 47.04579 7.15096 28896 ft 449 kts 227°
2026-05-05 11:05 47.00691 7.07959 28898 ft 448 kts 227°
2026-05-05 11:05 46.96784 7.00833 28901 ft 448 kts 227°
2026-05-05 11:06 46.92899 6.93778 28948 ft 447 kts 227°
2026-05-05 11:06 46.88524 6.87439 28936 ft 441 kts 216°
2026-05-05 11:07 46.83757 6.81760 28925 ft 441 kts 216°
2026-05-05 11:07 46.78993 6.76110 28915 ft 441 kts 216°
2026-05-05 11:08 46.74264 6.70503 28936 ft 440 kts 217°
2026-05-05 11:08 46.69521 6.64886 28929 ft 439 kts 217°
2026-05-05 11:08 46.67189 6.62124 28903 ft 422 kts 217°
2026-05-05 11:09 46.64960 6.59477 28911 ft 407 kts 217°
2026-05-05 11:09 46.60604 6.54331 28906 ft 401 kts 217°
2026-05-05 11:10 46.56258 6.49235 28908 ft 401 kts 216°
2026-05-05 11:10 46.51908 6.44149 28914 ft 402 kts 216°
2026-05-05 11:11 46.47587 6.39081 28909 ft 402 kts 216°
2026-05-05 11:11 46.43235 6.33987 28907 ft 402 kts 216°
2026-05-05 11:12 46.38887 6.28901 28935 ft 401 kts 216°
2026-05-05 11:12 46.34539 6.23837 28941 ft 400 kts 216°
2026-05-05 11:13 46.30192 6.18792 28946 ft 400 kts 216°
2026-05-05 11:13 46.25681 6.14141 28946 ft 397 kts 204°
2026-05-05 11:13 46.23099 6.12776 28943 ft 395 kts 193°
2026-05-05 11:14 46.20392 6.12094 28946 ft 394 kts 188°
2026-05-05 11:14 46.14999 6.10918 28946 ft 394 kts 189°
2026-05-05 11:15 46.09585 6.09714 28931 ft 393 kts 189°
2026-05-05 11:15 46.04177 6.08512 28938 ft 393 kts 189°
2026-05-05 11:16 45.98770 6.07317 28929 ft 393 kts 190°
2026-05-05 11:16 45.93397 6.06131 28948 ft 392 kts 190°
2026-05-05 11:17 45.88011 6.04942 28942 ft 391 kts 190°
2026-05-05 11:17 45.82633 6.03759 28939 ft 391 kts 190°
2026-05-05 11:18 45.77254 6.02574 28939 ft 391 kts 191°
2026-05-05 11:18 45.71885 6.01387 28935 ft 390 kts 191°
2026-05-05 11:19 45.66525 6.00200 28934 ft 389 kts 191°
2026-05-05 11:19 45.61167 5.99017 28917 ft 389 kts 192°
2026-05-05 11:20 45.55847 5.97851 28935 ft 389 kts 192°
2026-05-05 11:20 45.50502 5.96684 28936 ft 388 kts 192°
2026-05-05 11:21 45.45179 5.95433 28933 ft 387 kts 194°
2026-05-05 11:21 45.39922 5.93784 28939 ft 386 kts 197°
2026-05-05 11:22 45.34710 5.92039 28946 ft 383 kts 197°
2026-05-05 11:22 45.29549 5.90384 28933 ft 381 kts 197°
2026-05-05 11:23 45.24357 5.88773 28935 ft 382 kts 197°
2026-05-05 11:23 45.19180 5.87175 28931 ft 379 kts 197°
2026-05-05 11:24 45.14018 5.85578 28930 ft 379 kts 197°
2026-05-05 11:24 45.08868 5.83991 28927 ft 378 kts 197°
2026-05-05 11:25 45.03768 5.82417 28906 ft 377 kts 198°
2026-05-05 11:25 44.98646 5.80833 28922 ft 376 kts 198°
2026-05-05 11:26 44.93532 5.79258 28929 ft 375 kts 198°
2026-05-05 11:26 44.88434 5.77697 28927 ft 374 kts 198°
2026-05-05 11:27 44.83378 5.76149 28900 ft 374 kts 198°
2026-05-05 11:27 44.78302 5.74594 28906 ft 373 kts 198°
2026-05-05 11:28 44.73223 5.73045 28911 ft 373 kts 198°
2026-05-05 11:28 44.68171 5.71503 28918 ft 373 kts 198°
2026-05-05 11:29 44.63100 5.69961 28943 ft 372 kts 198°
2026-05-05 11:29 44.58070 5.68430 28932 ft 372 kts 198°
2026-05-05 11:30 44.53012 5.66893 28923 ft 371 kts 198°
2026-05-05 11:30 44.47968 5.65370 28917 ft 370 kts 198°
2026-05-05 11:31 44.43789 5.64110 28916 ft 369 kts 198°
2026-05-05 11:31 44.38765 5.62586 28910 ft 369 kts 199°
2026-05-05 11:32 44.33995 5.60159 28911 ft 364 kts 206°
2026-05-05 11:32 44.29284 5.57565 28910 ft 364 kts 207°
2026-05-05 11:33 44.24550 5.54975 28916 ft 365 kts 206°
2026-05-05 11:33 44.19822 5.52400 28922 ft 364 kts 206°
2026-05-05 11:34 44.15132 5.49848 28932 ft 364 kts 206°
2026-05-05 11:34 44.10406 5.47269 28924 ft 364 kts 206°
2026-05-05 11:35 44.05682 5.44699 28909 ft 364 kts 207°
2026-05-05 11:35 44.00953 5.42138 28919 ft 364 kts 206°
2026-05-05 11:36 43.96228 5.39587 28922 ft 364 kts 207°
2026-05-05 11:36 43.91504 5.37023 28922 ft 364 kts 207°
2026-05-05 11:37 43.86778 5.34468 28916 ft 366 kts 207°
2026-05-05 11:37 43.82054 5.31919 28964 ft 366 kts 207°
2026-05-05 11:38 43.77309 5.29365 28959 ft 365 kts 207°
2026-05-05 11:38 43.72579 5.26816 28950 ft 364 kts 207°
2026-05-05 11:39 43.67867 5.24287 28917 ft 362 kts 207°
2026-05-05 11:39 43.63164 5.21774 28920 ft 363 kts 207°
2026-05-05 11:40 43.58449 5.19254 28923 ft 364 kts 207°
2026-05-05 11:40 43.53710 5.16725 28928 ft 364 kts 207°
2026-05-05 11:41 43.48986 5.14196 28915 ft 364 kts 207°
2026-05-05 11:41 43.44282 5.11684 28920 ft 365 kts 206°
2026-05-05 11:42 43.39540 5.09160 28927 ft 365 kts 208°
2026-05-05 11:42 43.35284 5.05539 28929 ft 359 kts 218°
2026-05-05 11:43 43.31168 5.01639 28901 ft 359 kts 218°
2026-05-05 11:43 43.27041 4.97748 28913 ft 360 kts 218°
2026-05-05 11:44 43.22897 4.93858 28955 ft 361 kts 218°
2026-05-05 11:44 43.18755 4.89978 28958 ft 360 kts 218°
2026-05-05 11:45 43.14643 4.86131 28955 ft 359 kts 218°
2026-05-05 11:45 43.10516 4.82277 28921 ft 359 kts 218°
2026-05-05 11:46 43.06381 4.78414 28926 ft 360 kts 218°
2026-05-05 11:46 43.02031 4.74970 28931 ft 362 kts 213°
2026-05-05 11:47 42.97619 4.71627 28929 ft 362 kts 213°
2026-05-05 11:47 42.93207 4.68288 28932 ft 362 kts 213°
2026-05-05 11:48 42.86588 4.63279 28927 ft 363 kts 213°
2026-05-05 11:48 42.82173 4.59941 28932 ft 363 kts 213°
2026-05-05 11:49 42.77774 4.56629 28970 ft 363 kts 213°
2026-05-05 11:49 42.73348 4.53306 28971 ft 363 kts 213°
2026-05-05 11:50 42.68933 4.49994 28972 ft 362 kts 213°
2026-05-05 11:50 42.64521 4.46683 28970 ft 362 kts 213°
2026-05-05 11:51 42.60113 4.43384 28966 ft 361 kts 213°
2026-05-05 11:51 42.55730 4.40108 28962 ft 361 kts 213°
2026-05-05 11:52 42.51328 4.36826 28925 ft 361 kts 213°
2026-05-05 11:52 42.46916 4.33545 28930 ft 362 kts 213°
2026-05-05 11:53 42.42503 4.30260 28934 ft 362 kts 213°
2026-05-05 11:53 42.38100 4.26987 28933 ft 363 kts 213°
2026-05-05 11:54 42.33668 4.23707 28937 ft 363 kts 213°
2026-05-05 11:54 42.29228 4.20429 28922 ft 364 kts 213°
2026-05-05 11:55 42.24772 4.17137 28962 ft 364 kts 213°
2026-05-05 11:55 42.20334 4.13861 28960 ft 363 kts 213°
2026-05-05 11:56 42.15926 4.10611 28947 ft 363 kts 213°
2026-05-05 11:56 42.11493 4.07352 28925 ft 362 kts 213°
2026-05-05 11:57 42.07072 4.04099 28932 ft 362 kts 213°
2026-05-05 11:57 42.02640 4.00845 28938 ft 362 kts 213°
2026-05-05 11:58 41.98238 3.97622 28945 ft 362 kts 213°
2026-05-05 11:58 41.93806 3.94398 28937 ft 362 kts 212°
2026-05-05 11:59 41.91436 3.93171 28895 ft 371 kts 200°
2026-05-05 11:59 41.88878 3.92535 28905 ft 374 kts 197°
2026-05-05 11:59 41.83748 3.91367 28918 ft 374 kts 197°
2026-05-05 12:00 41.78612 3.90195 28930 ft 374 kts 197°
2026-05-05 12:00 41.73488 3.89010 28931 ft 374 kts 197°
2026-05-05 12:01 41.68359 3.87823 28911 ft 373 kts 197°
2026-05-05 12:01 41.63241 3.86646 28921 ft 373 kts 197°
2026-05-05 12:02 41.58116 3.85476 28928 ft 373 kts 197°
2026-05-05 12:02 41.53030 3.84305 28932 ft 373 kts 197°
2026-05-05 12:03 41.47909 3.83130 28921 ft 374 kts 197°
2026-05-05 12:03 41.42773 3.81956 28933 ft 375 kts 197°
2026-05-05 12:04 41.37631 3.80786 28960 ft 375 kts 197°
2026-05-05 12:04 41.32488 3.79613 28959 ft 374 kts 198°
2026-05-05 12:05 41.27359 3.78445 28946 ft 374 kts 197°
2026-05-05 12:05 41.22241 3.77280 28938 ft 373 kts 197°
2026-05-05 12:06 41.17154 3.76120 28950 ft 373 kts 197°
2026-05-05 12:06 41.12288 3.74163 28942 ft 363 kts 207°
2026-05-05 12:07 41.07580 3.71732 28943 ft 363 kts 207°
2026-05-05 12:07 41.02863 3.69289 28925 ft 365 kts 207°
2026-05-05 12:08 40.98154 3.66859 28932 ft 365 kts 207°
2026-05-05 12:08 40.93422 3.64435 28932 ft 364 kts 207°
2026-05-05 12:09 40.88701 3.62016 28930 ft 364 kts 207°
2026-05-05 12:09 40.83982 3.59595 28903 ft 364 kts 207°
2026-05-05 12:10 40.79253 3.57177 28910 ft 365 kts 207°
2026-05-05 12:10 40.74543 3.54772 28913 ft 365 kts 207°
2026-05-05 12:11 40.69790 3.52349 28921 ft 366 kts 207°
2026-05-05 12:11 40.65024 3.49927 28922 ft 366 kts 207°
2026-05-05 12:12 40.60296 3.47529 28926 ft 366 kts 207°
2026-05-05 12:12 40.55536 3.45113 28928 ft 367 kts 207°
2026-05-05 12:13 40.50778 3.42703 28929 ft 367 kts 207°
2026-05-05 12:13 40.46016 3.40299 28923 ft 367 kts 206°
2026-05-05 12:14 40.43521 3.39438 28933 ft 377 kts 194°
2026-05-05 12:14 40.40865 3.39384 28710 ft 381 kts 186°
2026-05-05 12:14 40.38241 3.39527 28289 ft 373 kts 186°
2026-05-05 12:14 40.35664 3.39692 27735 ft 369 kts 185°
2026-05-05 12:15 40.33110 3.39858 27150 ft 366 kts 185°
2026-05-05 12:15 40.30602 3.40015 26574 ft 363 kts 185°
2026-05-05 12:15 40.28088 3.40163 26000 ft 361 kts 185°
2026-05-05 12:15 40.25588 3.40307 25440 ft 358 kts 185°
2026-05-05 12:16 40.23102 3.40448 24889 ft 356 kts 185°
2026-05-05 12:16 40.20631 3.40589 24343 ft 354 kts 185°
2026-05-05 12:16 40.18172 3.40728 23779 ft 353 kts 185°
2026-05-05 12:16 40.15730 3.40868 23055 ft 348 kts 185°
2026-05-05 12:17 40.13321 3.41004 22063 ft 345 kts 185°
2026-05-05 12:17 40.10934 3.41137 21143 ft 341 kts 185°
2026-05-05 12:17 40.08571 3.41270 20262 ft 338 kts 184°
2026-05-05 12:17 40.06260 3.41402 19423 ft 335 kts 184°
2026-05-05 12:18 40.03934 3.41533 18607 ft 332 kts 184°
2026-05-05 12:18 40.01643 3.41661 17917 ft 324 kts 184°
2026-05-05 12:18 39.99438 3.41788 17380 ft 312 kts 184°
2026-05-05 12:18 39.97285 3.41910 16681 ft 307 kts 183°
2026-05-05 12:19 39.95156 3.42028 15967 ft 304 kts 183°
2026-05-05 12:19 39.93050 3.42142 15287 ft 301 kts 183°
2026-05-05 12:19 39.90961 3.42254 14626 ft 299 kts 182°
2026-05-05 12:19 39.88892 3.42370 13986 ft 296 kts 182°
2026-05-05 12:20 39.86868 3.42486 13320 ft 293 kts 182°
2026-05-05 12:20 39.84853 3.42602 12830 ft 284 kts 182°
2026-05-05 12:20 39.82917 3.42714 12442 ft 273 kts 182°
2026-05-05 12:20 39.81055 3.42821 12069 ft 262 kts 182°
2026-05-05 12:21 39.79859 3.42887 11829 ft 259 kts 182°
2026-05-05 12:21 39.78046 3.42985 11465 ft 261 kts 182°
2026-05-05 12:21 39.75628 3.43115 10963 ft 263 kts 181°
2026-05-05 12:21 39.73794 3.43216 10578 ft 264 kts 182°
2026-05-05 12:22 39.72569 3.43107 10321 ft 260 kts 195°
2026-05-05 12:22 39.70959 3.42177 9992 ft 258 kts 218°
2026-05-05 12:22 39.69768 3.40427 9931 ft 263 kts 239°
2026-05-05 12:22 39.69190 3.38153 9490 ft 270 kts 259°
2026-05-05 12:23 39.68938 3.35715 8979 ft 273 kts 260°
2026-05-05 12:23 39.68697 3.33274 8543 ft 273 kts 261°
2026-05-05 12:23 39.68457 3.30832 8138 ft 272 kts 261°
2026-05-05 12:23 39.68214 3.28396 7717 ft 271 kts 260°
2026-05-05 12:24 39.67969 3.25962 7303 ft 271 kts 261°
2026-05-05 12:24 39.67720 3.23544 6923 ft 270 kts 261°
2026-05-05 12:24 39.67470 3.21137 6526 ft 268 kts 261°
2026-05-05 12:24 39.67221 3.18757 6260 ft 260 kts 260°
2026-05-05 12:25 39.66982 3.16478 6127 ft 248 kts 261°
2026-05-05 12:25 39.66755 3.14310 6000 ft 237 kts 261°
2026-05-05 12:25 39.66537 3.12232 5847 ft 229 kts 261°
2026-05-05 12:25 39.66317 3.10156 5284 ft 236 kts 260°
2026-05-05 12:26 39.66093 3.08077 4729 ft 234 kts 261°
2026-05-05 12:26 39.65876 3.06044 4587 ft 219 kts 261°
2026-05-05 12:26 39.65675 3.04150 4585 ft 206 kts 260°
2026-05-05 12:26 39.65486 3.02375 4587 ft 190 kts 260°
2026-05-05 12:27 39.65313 3.00744 4525 ft 175 kts 261°
2026-05-05 12:27 39.65150 2.99204 4352 ft 169 kts 259°
2026-05-05 12:27 39.64986 2.97675 4146 ft 173 kts 261°
2026-05-05 12:27 39.64800 2.96132 3918 ft 172 kts 253°
2026-05-05 12:28 39.64274 2.94787 3618 ft 165 kts 238°
2026-05-05 12:28 39.63700 2.93525 3322 ft 164 kts 239°
2026-05-05 12:28 39.63110 2.92252 3026 ft 163 kts 237°
2026-05-05 12:28 39.62528 2.91006 2679 ft 161 kts 237°
2026-05-05 12:29 39.61953 2.89781 2338 ft 156 kts 237°
2026-05-05 12:29 39.61397 2.88596 2077 ft 148 kts 235°
2026-05-05 12:29 39.60885 2.87506 1974 ft 138 kts 236°
2026-05-05 12:29 39.60379 2.86433 1828 ft 139 kts 235°
2026-05-05 12:30 39.59875 2.85363 1660 ft 137 kts 234°
2026-05-05 12:30 39.59390 2.84333 1461 ft 134 kts 236°
2026-05-05 12:30 39.58895 2.83281 1299 ft 136 kts 236°
2026-05-05 12:30 39.58411 2.82255 1124 ft 135 kts 236°
2026-05-05 12:31 39.57924 2.81224 980 ft 133 kts 236°
2026-05-05 12:31 39.57439 2.80199 742 ft 134 kts 236°
2026-05-05 12:31 39.56944 2.79145 623 ft 139 kts 237°
2026-05-05 12:31 39.56423 2.78035 374 ft 147 kts 237°
2026-05-05 12:32 39.55892 2.76918 206 ft 142 kts 237°
2026-05-05 12:32 39.55398 2.75861 43 ft 130 kts 237°
2026-05-05 12:32 39.54990 2.75012 30 ft 77 kts 238°
2026-05-05 12:32 39.54865 2.74715 30 ft 16 kts 246°
2026-05-05 12:33 39.54824 2.74571 30 ft 18 kts 256°
2026-05-05 12:33 39.54805 2.74403 30 ft 20 kts 268°
2026-05-05 12:33 39.54800 2.74229 30 ft 17 kts 267°
2026-05-05 12:33 39.54774 2.74093 30 ft 16 kts 241°
2026-05-05 12:34 39.54713 2.73961 30 ft 18 kts 238°
2026-05-05 12:34 39.54645 2.73819 30 ft 19 kts 239°
2026-05-05 12:34 39.54579 2.73667 30 ft 18 kts 261°
2026-05-05 12:34 39.54618 2.73584 30 ft 8 kts 279°
2026-05-05 12:35 39.54589 2.73511 30 ft 10 kts 233°
2026-05-05 12:35 39.54542 2.73428 30 ft 5 kts 235°
2026-05-05 12:35 39.54542 2.73427 29 ft 0 kts 235°
2026-05-05 12:35 39.54540 2.73424 29 ft 3 kts 236°
2026-05-05 12:36 39.54561 2.73381 30 ft 8 kts 335°
2026-05-05 12:36 39.54572 2.73378 30 ft 1 kts 347°
2026-05-05 12:36 39.54579 2.73376 30 ft 0 kts 347°